Back to catalog

STARLINK-5647

AliveCommunicationsVLEO
NORAD 55355·PAYLOAD·🇺🇸 United States

Launched Jan 26, 2023 from Cape Canaveral Space Force Station

Loading…

Next Passes (next 24 hours)

TLE

FreshSource: CelesTrak SupGP

Epoch: Sep 14, 2026, 13:55 UTC

1 55355C 23013AA  26257.58034722  .00043371  00000+0  15712-2 0  2577
2 55355  43.0009 316.5888 0001336 277.7148  37.1162 15.27550988    10

Track STARLINK-5647 in real time with AllMySat

Download on the App Store